FW5947 Weather Reports


time (UTC)temp
C
wind
direction
speed
KPH
gust
KPH
rain 1hr
cm
rain 24hr
cm
rain mn
cm
humidity
%
barometer
mb
20260906213001 18 278 3.2 4.8 0.00 0.00 0.00 75 1010.9
20260906212019 18 247 1.6 3.2 0.00 0.00 0.00 74 1011.2
20260906211020 18 244 1.6 3.2 0.00 0.00 0.00 72 1011.0
20260906210026 19 329 4.8 6.4 0.00 0.00 0.00 72 1011.1
20260906205029 19 136 1.6 3.2 0.00 0.00 0.00 73 1011.2
20260906204033 18 245 1.6 3.2 0.00 0.00 0.00 73 1010.8
20260906203025 20 302 4.8 6.4 0.00 0.00 0.00 70 1010.9
20260906202009 20 250 4.8 6.4 0.00 0.00 0.00 71 1010.7
20260906200024 20 200 3.2 4.8 0.00 0.00 0.00 71 1010.9
20260906194019 21 203 4.8 6.4 0.00 0.00 0.00 70 1011.0
20260906193026 21 205 4.8 9.7 0.00 0.00 0.00 68 1010.7
20260906192002 21 299 1.6 3.2 0.00 0.00 0.00 74 1010.7
20260906190038 21 281 4.8 6.4 0.00 0.00 0.00 69 1010.6
20260906185016 20 230 1.6 3.2 0.00 0.00 0.00 71 1010.6
20260906184008 21 248 4.8 4.8 0.00 0.00 0.00 70 1010.6
20260906183023 21 222 3.2 4.8 0.00 0.00 0.00 70 1010.9
20260906182021 20 227 1.6 3.2 0.00 0.00 0.00 73 1010.8
20260906181012 20 231 3.2 4.8 0.00 0.00 0.00 76 1010.9
20260906180045 21 232 3.2 4.8 0.00 0.00 0.00 72 1011.0
20260906175024 20 143 4.8 6.4 0.00 0.00 0.00 73 1010.7
20260906174037 20 261 4.8 6.4 0.00 0.00 0.00 70 1010.7
20260906173029 20 170 4.8 6.4 0.00 0.00 0.00 69 1010.7
20260906172010 21 258 3.2 3.2 0.00 0.00 0.00 71 1010.9
20260906170016 20 46 8.0 11.3 0.00 0.00 0.00 70 1010.8
20260906165018 21 244 3.2 4.8 0.00 0.00 0.00 72 1011.0
20260906164014 20 162 8.0 9.7 0.00 0.00 0.00 74 1011.0
20260906163046 20 254 4.8 6.4 0.00 0.00 0.00 75 1010.8
20260906161004 20 252 4.8 6.4 0.00 0.00 0.00 75 1010.8
20260906160037 21 129 6.4 8.0 0.00 0.00 0.00 74 1010.7
20260906155025 20 236 1.6 3.2 0.00 0.00 0.00 78 1010.8
20260906153020 20 153 3.2 4.8 0.00 0.00 0.00 75 1010.7
20260906152018 19 201 3.2 4.8 0.00 0.00 0.00 79 1010.7
20260906151013 20 33 4.8 8.0 0.00 0.00 0.00 77 1010.6
20260906150030 20 195 9.7 11.3 0.00 0.00 0.00 78 1010.7
20260906145002 19 184 6.4 9.7 0.00 0.00 0.00 81 1010.6
20260906144025 19 182 4.8 6.4 0.00 0.00 0.00 84 1010.4
20260906143033 19 299 3.2 4.8 0.00 0.00 0.00 84 1010.6
20260906142038 19 244 3.2 4.8 0.00 0.00 0.00 85 1010.6
20260906141002 20 203 6.4 9.7 0.00 0.00 0.00 79 1010.2
20260906140030 20 227 1.6 3.2 0.00 0.00 0.00 83 1010.3
20260906134006 20 124 11.3 14.5 0.00 0.00 0.00 89 1010.1
20260906132032 18 97 9.7 11.3 0.00 0.00 0.00 95 1010.2
20260906131020 18 210 3.2 4.8 0.00 0.00 0.00 97 1010.1
20260906130008 17 214 0.0 0.0 0.00 0.00 0.00 99 1010.1
20260906124036 16 219 0.0 0.0 0.00 0.00 0.00 99 1009.9
20260906122002 16 218 4.8 6.4 0.00 0.00 0.00 99 1009.6
20260906120042 16 220 0.0 0.0 0.00 0.00 0.00 99 1009.8
20260906114017 16 220 0.0 0.0 0.00 0.00 0.00 99 1009.2
20260906113045 16 220 0.0 0.0 0.00 0.00 0.00 99 1009.3
20260906112007 16 220 0.0 0.0 0.00 0.00 0.00 99 1009.1
20260906111010 15 220 0.0 0.0 0.00 0.00 0.00 99 1009.1
20260906104020 15 220 0.0 0.0 0.00 0.00 0.00 99 1008.8
20260906103044 15 220 0.0 0.0 0.00 0.00 0.00 99 1008.7
20260906102001 15 220 0.0 0.0 0.00 0.00 0.00 99 1008.7
20260906101033 15 220 0.0 0.0 0.00 0.00 0.00 99 1008.7
20260906100031 15 220 0.0 0.0 0.00 0.00 0.00 99 1008.2
20260906095032 15 220 0.0 0.0 0.00 0.00 0.00 99 1008.5
20260906094023 15 220 0.0 0.0 0.00 0.00 0.00 99 1008.3
20260906093043 15 220 0.0 0.0 0.00 0.00 0.00 99 1008.4
20260906092015 15 220 0.0 0.0 0.00 0.00 0.00 99 1008.4
20260906091034 15 220 0.0 0.0 0.00 0.00 0.00 99 1008.0
20260906090015 15 220 0.0 0.0 0.00 0.00 0.00 99 1007.9
20260906085042 15 220 0.0 0.0 0.00 0.00 0.00 99 1007.6
20260906084022 15 220 0.0 0.0 0.00 0.00 0.00 99 1007.6
20260906083005 16 220 0.0 0.0 0.00 0.00 0.00 99 1007.6
20260906081018 15 220 0.0 0.0 0.00 0.00 0.00 99 1007.3
20260906080038 15 220 0.0 0.0 0.00 0.00 0.00 99 1007.5
20260906075024 16 220 0.0 0.0 0.00 0.00 0.00 99 1007.4
20260906073016 16 220 0.0 0.0 0.00 0.00 0.00 99 1007.3
20260906072005 16 220 0.0 0.0 0.00 0.00 0.00 99 1007.3
20260906071025 16 220 0.0 0.0 0.00 0.00 0.00 99 1007.4
20260906065026 16 220 0.0 0.0 0.00 0.00 0.00 99 1007.2
20260906064030 16 220 0.0 0.0 0.00 0.00 0.00 99 1007.3
20260906063022 16 220 0.0 0.0 0.00 0.00 0.00 99 1007.5
20260906062029 16 220 0.0 0.0 0.00 0.00 0.00 99 1007.4
20260906061036 16 220 0.0 0.0 0.00 0.00 0.00 99 1007.4
20260906060010 16 220 0.0 0.0 0.00 0.00 0.00 99 1007.6
20260906055027 17 220 1.6 3.2 0.00 0.00 0.00 99 1007.5
20260906054010 17 220 0.0 0.0 0.00 0.00 0.00 99 1007.5
20260906053029 17 220 0.0 0.0 0.00 0.00 0.00 99 1007.6
20260906052038 16 220 0.0 0.0 0.00 0.00 0.00 99 1007.6
20260906051001 16 220 0.0 0.0 0.00 0.00 0.00 99 1007.6
20260906045023 16 220 0.0 0.0 0.00 0.00 0.00 98 1007.4
20260906044027 16 220 0.0 0.0 0.00 0.00 0.00 98 1007.2
20260906043001 16 220 0.0 0.0 0.00 0.00 0.00 98 1007.5
20260906042035 16 220 0.0 0.0 0.00 0.00 0.00 98 1007.4
20260906041027 16 220 0.0 0.0 0.00 0.00 0.00 97 1007.5
20260906040042 16 220 0.0 0.0 0.00 0.00 0.00 97 1007.2
20260906034020 16 220 0.0 0.0 0.00 0.00 0.00 97 1007.0
20260906033009 17 220 0.0 0.0 0.00 0.00 0.00 97 1007.3
20260906032004 17 220 0.0 0.0 0.00 0.00 0.00 97 1007.1
20260906031042 16 220 0.0 0.0 0.00 0.00 0.00 97 1007.2
20260906030017 16 220 0.0 0.0 0.00 0.00 0.00 97 1007.1
20260906024042 16 220 0.0 0.0 0.00 0.00 0.00 96 1006.8
20260906023039 16 220 0.0 0.0 0.00 0.00 0.00 96 1006.9
20260906022019 16 220 0.0 0.0 0.00 0.00 0.00 96 1006.7
20260906021022 16 220 0.0 0.0 0.00 0.00 0.00 95 1006.7
20260906020009 16 220 0.0 0.0 0.00 0.00 0.00 95 1006.9
20260906015012 16 220 0.0 0.0 0.00 0.00 0.00 95 1006.7
20260906014011 16 220 0.0 0.0 0.00 0.00 0.00 94 1006.5
20260906013014 17 220 0.0 0.0 0.00 0.00 0.00 94 1006.9
20260906012034 17 220 0.0 0.0 0.00 0.00 0.00 94 1006.7
20260906011045 17 220 0.0 0.0 0.00 0.00 0.00 94 1006.6
20260906010037 17 220 0.0 0.0 0.00 0.00 0.00 93 1006.7
20260906005031 17 220 0.0 0.0 0.00 0.00 0.00 92 1006.5
20260906004012 17 220 0.0 0.0 0.00 0.00 0.00 92 1006.4
20260906003014 17 220 0.0 0.0 0.00 0.00 0.00 91 1006.4
20260906001004 18 220 0.0 0.0 0.00 0.00 0.00 90 1006.4
20260906000037 18 220 0.0 0.0 0.00 0.00 0.00 90 1006.7
20260905235030 18 220 0.0 0.0 0.00 0.00 0.00 88 1006.4
20260905233010 18 220 0.0 0.0 0.00 0.00 0.00 86 1006.4
20260905232017 19 220 0.0 0.0 0.00 0.00 0.00 85 1006.4
20260905230042 20 219 1.6 3.2 0.00 0.00 0.00 84 1006.6
20260905225005 20 219 0.0 0.0 0.00 0.00 0.00 83 1006.4
20260905224028 20 220 1.6 3.2 0.00 0.00 0.00 83 1006.5
20260905223014 20 220 0.0 0.0 0.00 0.00 0.00 82 1006.2
20260905222002 20 219 0.0 0.0 0.00 0.00 0.00 82 1006.3
20260905221003 20 220 1.6 3.2 0.00 0.00 0.00 83 1006.4
20260905220035 20 220 0.0 0.0 0.00 0.00 0.00 82 1006.4
20260905215044 20 222 3.2 4.8 0.00 0.00 0.00 79 1006.0
20260905214045 21 221 0.0 0.0 0.00 0.00 0.00 79 1006.1